Tracking 19709 objects as of 19-Jun-2019
HD Live streaming from Space Station
objects crossing your sky now

CBERS 1 DEB


CBERS 1 DEB is no longer on orbit


NORAD ID: 31586
Int'l Code: 1999-057PH
Perigee: N/A
Apogee: N/A
Inclination: N/A
Period: N/A
Semi major axis: N/A
RCS: N/A
Launch date: October 14, 1999
Source: China/Brazil (CHBZ)
Launch site: Taiyaun Space Center, China (TSC)
Decay date: 2015-09-29

Note: This is SATELLITE DEBRIS
aabbcc
Your satellite tracking list
Your tracking list is empty




NASA's NSSDC Master Catalog

Two Line Element Set (TLE):
1 31586U 99057PH  15246.83658830  .00482686  00000-0  70639-2 0  9993
2 31586  98.2036 250.5166 0017179 139.1520 344.3673 15.53769036448713
Source of the keplerian elements: AFSPC